JCSAT 2A

Last updated on Nov. 18, 2019, 4:21 a.m. UTC

1 27399U 02015A   19320.95173236 -.00000297  00000-0  00000+0 0  9997
2 27399   2.4125  86.8536 0007744 170.9192 276.6099  1.00272890 64517
UTC
Height (km)
Latitude
Longitude
Inclination
Orbital Period
UTC large
Height (km)
Speed (km/s)
/
Latitude / Longitude
Inclination (degrees)
Orbital Period (minutes)
Azimuth
Elevation
Range (km)
Doppler Factor
iOS Compass Heading
iOS Angle

Next 30 passes for location: Hong Kong

Rise time Rise Azimuth (degrees) Set time Set Azimuth (degrees) Duration Max altitude (degrees)

No matching passes for this satellites